Location: Andrest
(43.3200°N, 0.0641°E)
Time: 09:05:24
(UTC+00:00)

Cosmos 1689 Rocket - Pass Details

Date: 01 December 2020
Orbit: 356 x 370 km, 97.5° (Epoch: 23 January)

Event Time Altitude Azimuth Distance (km) Brightness Sun altitude
Exits shadow 17:31:35 12° 115° (ESE) 1,257 4.2 -11.8°
Drops below altitude 10° 17:32:14 10° 127° (SE) 1,383 4.5 -11.9°
Sets 17:34:52 0° 155° (SSE) 2,229 5.9 -12.4°
